Montauk, NY

5:12 AM EST on December 18, 2017 (GMT -0500)
Montauk

Weather History for KMTP - September, 2013

Change the Weather History Date:

Wednesday, September 4, 2013

  Actual Average (KHTO) Record (KHTO)
Temperature  
Mean Temperature 70 °F -  
Max Temperature 77 °F 76 °F 89 °F (1973)
Min Temperature 66 °F 60 °F 47 °F (1976)
Cooling Degree Days 6    
Growing Degree Days 20 (Base 50)    
Moisture  
Dew Point 59 °F    
Average Humidity 67    
Maximum Humidity 87    
Minimum Humidity 46    
Precipitation  
Precipitation 0.00 in - - ()
Sea Level Pressure  
Sea Level Pressure 29.94 in    
Wind  
Wind Speed 8 mph (West)    
Max Wind Speed 10 mph    
Max Gust Speed 17 mph    
Averages and records for this station are not official NWS values.
T = Trace of Precipitation, MM = Missing Value Source: NWS Daily Summary

Daily Weather History Graph

Daily Weather History Graph

Search for Another Location

Airport or City:

Trip Planner

Search our weather history database for the weather conditions in past years. The results will help you decide how hot, cold, wet, or windy it might be!

Date:

Astronomy

Sep. 04, 2013 Rise Set
Actual Time 6:17 AM EDT 7:14 PM EDT
Civil Twilight 5:49 AM EDT 7:43 PM EDT
Nautical Twilight 5:15 AM EDT 8:16 PM EDT
Astronomical Twilight 4:41 AM EDT 8:51 PM EDT
Moon 5:26 AM EDT (9/4) 6:32 PM EDT (9/4)
Length of Visible Light 13h 53m
Length of Day
12h 57m
Waning Crescent, 1% of the Moon is Illuminated
Sep 4
Waning Crescent
Sep 5
New
Sep 12
First Quarter
Sep 19
Full
Sep 26
Last Quarter

Hourly Weather History & Observations

Time (EDT) Temp. Dew Point Humidity Pressure Visibility Wind Dir Wind Speed Gust Speed Precip Events Conditions
12:54 AM 68.0 °F 59.0 °F 73% 29.87 in - NW 9.2 mph - N/A   Unknown
1:54 AM 66.9 °F 57.9 °F 73% 29.88 in - NW 5.8 mph - N/A   Unknown
2:54 AM 66.9 °F 57.9 °F 73% 29.88 in - NW 8.1 mph - N/A   Unknown
3:54 AM 66.9 °F 57.9 °F 73% 29.89 in - WNW 8.1 mph - N/A   Unknown
4:54 AM 66.0 °F 57.9 °F 75% 29.90 in - WNW 8.1 mph - N/A   Unknown
5:54 AM 66.9 °F 57.9 °F 73% 29.92 in - WNW 8.1 mph - N/A   Unknown
6:54 AM 66.9 °F 57.9 °F 73% 29.93 in - WNW 10.4 mph 16.1 mph N/A   Unknown
7:54 AM 68.0 °F 57.9 °F 70% 29.95 in - WNW 9.2 mph 17.3 mph N/A   Unknown
8:54 AM 69.1 °F 59.0 °F 70% 29.97 in - WNW 8.1 mph 17.3 mph N/A   Unknown
9:54 AM 70.0 °F 59.0 °F 68% 29.97 in - WNW 5.8 mph - N/A   Unknown
10:54 AM 72.0 °F 59.0 °F 64% 29.96 in - WNW 8.1 mph 17.3 mph N/A   Unknown
11:54 AM 72.0 °F 59.0 °F 64% 29.96 in - West 9.2 mph - N/A   Unknown
12:54 PM 73.9 °F 59.0 °F 59% 29.96 in - West 10.4 mph 17.3 mph N/A   Unknown
1:54 PM 75.0 °F 57.9 °F 55% 29.96 in - West 9.2 mph - N/A   Unknown
2:54 PM 75.0 °F 59.0 °F 57% 29.95 in - West 9.2 mph - N/A   Unknown
3:54 PM 75.9 °F 55.0 °F 48% 29.94 in - West 9.2 mph - N/A   Unknown
4:54 PM 75.9 °F 54.0 °F 46% 29.94 in - West 8.1 mph - N/A   Unknown
5:54 PM 75.9 °F 57.9 °F 54% 29.94 in - West 8.1 mph - N/A   Unknown
6:54 PM 73.0 °F 60.1 °F 64% 29.94 in - SW 4.6 mph - N/A   Unknown
8:54 PM 70.0 °F 59.0 °F 68% 29.96 in - Calm Calm - N/A   Unknown
9:54 PM 69.1 °F 63.0 °F 81% 29.96 in - SSW 3.5 mph - N/A   Unknown
10:54 PM 69.1 °F 64.9 °F 87% 29.97 in - SW 3.5 mph - N/A   Unknown
11:54 PM 69.1 °F 64.0 °F 84% 29.97 in - Variable 3.5 mph - N/A   Unknown